Weather History for KGYY - October, 2013

Change the Weather History Date:

Tuesday, October 8, 2013

  Actual Average Record
Temperature  
Mean Temperature 62 °F -  
Max Temperature 76 °F 63 °F 91 °F (2007)
Min Temperature 48 °F 43 °F 30 °F (1952)
Degree Days  
Heating Degree Days 4    
Growing Degree Days 12 (Base 50)    
Moisture  
Dew Point 47 °F    
Average Humidity 67    
Maximum Humidity 88    
Minimum Humidity 31    
Precipitation  
Precipitation 0.00 in - - ()
Sea Level Pressure  
Sea Level Pressure 30.16 in    
Wind  
Wind Speed 4 mph (SSE)    
Max Wind Speed 7 mph    
Max Gust Speed -    
Visibility 14 miles    
Events      
Averages and records for this station are not official NWS values.
T = Trace of Precipitation, MM = Missing Value Source: NWS Daily Summary

Daily Weather History Graph

Daily Weather History Graph

Search for Another Location

Airport or City:

Trip Planner

Search our weather history database for the weather conditions in past years. The results will help you decide how hot, cold, wet, or windy it might be!

Date:

Astronomy

Oct. 08, 2013 Rise Set
Actual Time 6:54 AM CDT 6:19 PM CDT
Civil Twilight 6:26 AM CDT 6:46 PM CDT
Nautical Twilight 5:54 AM CDT 7:19 PM CDT
Astronomical Twilight 5:22 AM CDT 7:51 PM CDT
Moon 10:51 AM CDT (10/8) 8:52 PM CDT (10/8)
Length of Visible Light 12h 20m
Length of Day
11h 25m
Waxing Crescent, 16% of the Moon is Illuminated
Oct 8
Waxing Crescent
Oct 11
First Quarter
Oct 18
Full
Oct 26
Last Quarter
Nov 3
New

Hourly Weather History & Observations

Time (CDT) Temp. Dew Point Humidity Pressure Visibility Wind Dir Wind Speed Gust Speed Precip Events Conditions
12:15 AM 53.8 °F 45.0 °F 72% 30.11 in 10.0 mi SE 3.5 mph - N/A   Clear
12:35 AM 53.1 °F 45.1 °F 74% 30.11 in 10.0 mi SE 3.5 mph - N/A   Clear
12:55 AM 52.5 °F 45.1 °F 76% 30.11 in 10.0 mi SE 3.5 mph - N/A   Clear
1:15 AM 52.2 °F 45.5 °F 78% 30.11 in 10.0 mi SE 3.5 mph - N/A   Clear
1:35 AM 52.0 °F 45.5 °F 79% 30.12 in 10.0 mi SSE 3.5 mph - N/A   Clear
1:55 AM 51.6 °F 45.5 °F 80% 30.12 in 10.0 mi SE 3.5 mph - N/A   Clear
2:15 AM 50.9 °F 45.5 °F 82% 30.12 in 10.0 mi SSE 3.5 mph - N/A   Clear
2:35 AM 50.9 °F 45.5 °F 82% 30.12 in 10.0 mi SSE 3.5 mph - N/A   Clear
2:55 AM 50.9 °F 45.5 °F 82% 30.12 in 10.0 mi SSE 4.6 mph - N/A   Clear
3:15 AM 50.5 °F 45.5 °F 83% 30.12 in 10.0 mi SSE 4.6 mph - N/A   Clear
3:35 AM 50.5 °F 45.5 °F 83% 30.12 in 10.0 mi SSE 3.5 mph - N/A   Clear
3:55 AM 50.0 °F 45.1 °F 83% 30.13 in 10.0 mi Calm Calm - N/A   Clear
4:15 AM 49.6 °F 45.0 °F 84% 30.13 in 10.0 mi SSE 4.6 mph - N/A   Clear
4:35 AM 49.5 °F 45.3 °F 86% 30.14 in 10.0 mi SSE 4.6 mph - N/A   Clear
4:45 AM 50.0 °F 44.6 °F 82% 30.14 in 10.0 mi Variable 4.6 mph - N/A   Partly Cloudy
5:45 AM 48.2 °F 44.6 °F 87% 30.15 in 10.0 mi Variable 4.6 mph - N/A   Partly Cloudy
6:45 AM 48.2 °F 44.6 °F 87% 30.17 in 15.0 mi Variable 4.6 mph - N/A   Clear
7:45 AM 50.0 °F 44.6 °F 82% 30.19 in 20.0 mi Variable 4.6 mph - N/A   Clear
8:45 AM 53.6 °F 46.4 °F 77% 30.20 in 20.0 mi Variable 3.5 mph - N/A   Clear
9:45 AM 59.0 °F 48.2 °F 67% 30.21 in 20.0 mi Variable 3.5 mph - N/A   Clear
10:45 AM 64.4 °F 48.2 °F 56% 30.21 in 20.0 mi South 4.6 mph - N/A   Clear
11:45 AM 68.0 °F 50.0 °F 52% 30.21 in 20.0 mi SSW 3.5 mph - N/A   Clear
12:45 PM 71.6 °F 50.0 °F 46% 30.19 in 20.0 mi SE 6.9 mph - N/A   Clear
1:45 PM 73.4 °F 48.2 °F 41% 30.17 in 20.0 mi SSW 3.5 mph - N/A   Clear
2:45 PM 75.2 °F 44.6 °F 34% 30.16 in 20.0 mi Calm Calm - N/A   Clear
3:45 PM 75.2 °F 42.8 °F 31% 30.15 in 20.0 mi SSE 3.5 mph - N/A   Clear
4:45 PM 75.2 °F 44.6 °F 34% 30.15 in 20.0 mi Calm Calm - N/A   Clear
5:45 PM 71.6 °F 50.0 °F 46% 30.15 in 20.0 mi Variable 3.5 mph - N/A   Clear
6:45 PM 57.2 °F 53.6 °F 88% 30.17 in 20.0 mi Calm Calm - N/A   Clear
7:45 PM 64.4 °F 50.0 °F 59% 30.17 in 20.0 mi Variable 5.8 mph - N/A   Clear
8:45 PM 64.4 °F 46.4 °F 52% 30.18 in 20.0 mi Variable 5.8 mph - N/A   Clear
9:15 PM 64.0 °F 47.5 °F 55% 30.19 in 10.0 mi SE 5.8 mph - N/A   Clear
9:35 PM 63.7 °F 47.5 °F 56% 30.19 in 10.0 mi SE 5.8 mph - N/A   Clear
9:45 PM 62.6 °F 46.4 °F 55% 30.19 in 20.0 mi Variable 4.6 mph - N/A   Clear
9:55 PM 63.0 °F 47.3 °F 57% 30.20 in 10.0 mi SSE 4.6 mph - N/A   Clear
10:15 PM 62.1 °F 47.5 °F 59% 30.20 in 10.0 mi SSE 5.8 mph - N/A   Clear
10:35 PM 61.9 °F 47.5 °F 59% 30.20 in 10.0 mi SSE 6.9 mph - N/A   Clear
10:55 PM 61.3 °F 47.5 °F 60% 30.19 in 10.0 mi SSE 5.8 mph - N/A   Clear
11:15 PM 60.4 °F 47.7 °F 63% 30.19 in 10.0 mi SSE 4.6 mph - N/A   Clear
11:35 PM 59.4 °F 47.8 °F 66% 30.19 in 10.0 mi SSE 5.8 mph - N/A   Clear
11:55 PM 58.1 °F 48.0 °F 69% 30.19 in 10.0 mi SSE 3.5 mph - N/A   Clear